Tracking 20370 objects as of 20-Feb-2020
HD Live streaming from Space Station
objects crossing your sky now
Track the group of recently launched Starlink satellites

COSMOS 1927

Track COSMOS 1927 now!
10-day predictions
COSMOS 1927 is classified as:


NORAD ID: 18940
Int'l Code: 1988-016D
Perigee: 1,462.7 km
Apogee: 1,473.3 km
Inclination: 74.0 °
Period: 115.1 minutes
Semi major axis: 7838 km
RCS: 0.7207 m2 (medium)
Launch date: March 11, 1988
Source: Commonwealth of Independent States (former USSR) (CIS)
Launch site: PLESETSK MISSILE AND SPACE COMPLEX (PKMTR)
aabbcc
Your satellite tracking list
Your tracking list is empty




NASA's NSSDC Master Catalog

Two Line Element Set (TLE):
1 18940U 88016D   20050.58204465 -.00000019 +00000-0 -17735-4 0  9995
2 18940 074.0044 110.4850 0006776 103.6189 074.7355 12.50878270458712
Source of the keplerian elements: AFSPC